OVO0649 ZSPD-ZPPP

Flight info

Callsign OVO0649
Flight time 3h 6m
Altitude 37100
Route POMOK G330 PIMOL V14 NOBEM W73 MADUK W51 LEGIV W164 ADGOL W50 XSH W80 IDGAG A581 QNX W136 XISLI
Aircraft A339/H-SADE1E2E3GHIJ1J3J5M1P2RWXY/LB2D1

Departure

Time 2026-05-05 06:05
Airport Shanghai Pudong International Airport (ZSPD)

Arrival

Time 2026-05-05 09:12
Airport Kunming Changshui International Airport (ZPPP)
Time Latitude Longitude Altitude Speed Heading
2026-05-05 05:53 31.15465 121.79529 31 ft 0 kts 73°
2026-05-05 05:56 31.15465 121.79528 31 ft 1 kts 73°
2026-05-05 05:56 31.15461 121.79512 30 ft 2 kts 73°
2026-05-05 05:57 31.15456 121.79495 30 ft 2 kts 73°
2026-05-05 05:57 31.15452 121.79479 29 ft 2 kts 73°
2026-05-05 05:57 31.15449 121.79468 29 ft 2 kts 73°
2026-05-05 05:57 31.15443 121.79452 29 ft 2 kts 53°
2026-05-05 05:58 31.15433 121.79439 29 ft 2 kts 36°
2026-05-05 05:58 31.15420 121.79430 28 ft 2 kts 19°
2026-05-05 05:58 31.15405 121.79427 28 ft 2 kts
2026-05-05 05:58 31.15391 121.79428 29 ft 2 kts 346°
2026-05-05 05:59 31.15386 121.79429 29 ft 1 kts 341°
2026-05-05 05:59 31.15382 121.79431 29 ft 0 kts 340°
2026-05-05 06:00 31.15384 121.79430 29 ft 1 kts 340°
2026-05-05 06:00 31.15409 121.79419 28 ft 7 kts 340°
2026-05-05 06:00 31.15476 121.79391 28 ft 13 kts 340°
2026-05-05 06:01 31.15575 121.79356 28 ft 16 kts 344°
2026-05-05 06:01 31.15669 121.79296 30 ft 15 kts 302°
2026-05-05 06:01 31.15670 121.79220 30 ft 15 kts 257°
2026-05-05 06:01 31.15636 121.79067 32 ft 10 kts 264°
2026-05-05 06:02 31.15663 121.78999 33 ft 10 kts 326°
2026-05-05 06:02 31.15729 121.78961 33 ft 11 kts 342°
2026-05-05 06:02 31.15812 121.78930 33 ft 13 kts 342°
2026-05-05 06:02 31.15874 121.78906 33 ft 15 kts 342°
2026-05-05 06:03 31.16012 121.78854 34 ft 16 kts 342°
2026-05-05 06:03 31.16115 121.78811 34 ft 11 kts 331°
2026-05-05 06:03 31.16143 121.78752 34 ft 0 kts 259°
2026-05-05 06:04 31.16141 121.78741 34 ft 7 kts 259°
2026-05-05 06:04 31.16089 121.78633 34 ft 23 kts 202°
2026-05-05 06:05 31.15811 121.78716 34 ft 75 kts 162°
2026-05-05 06:05 31.15077 121.78993 36 ft 143 kts 162°
2026-05-05 06:05 31.13945 121.79424 77 ft 194 kts 161°
2026-05-05 06:05 31.12670 121.79924 850 ft 193 kts 163°
2026-05-05 06:06 31.11447 121.80338 1730 ft 180 kts 166°
2026-05-05 06:06 31.10649 121.80590 2169 ft 180 kts 167°
2026-05-05 06:06 31.08957 121.81116 2654 ft 202 kts 166°
2026-05-05 06:06 31.07538 121.81565 3010 ft 219 kts 166°
2026-05-05 06:07 31.06011 121.82054 3364 ft 237 kts 165°
2026-05-05 06:07 31.04381 121.82581 3836 ft 249 kts 165°
2026-05-05 06:07 31.02707 121.83104 4497 ft 252 kts 170°
2026-05-05 06:07 31.00953 121.83055 5053 ft 260 kts 196°
2026-05-05 06:08 30.99359 121.82024 5527 ft 271 kts 225°
2026-05-05 06:08 30.98346 121.80183 6125 ft 276 kts 251°
2026-05-05 06:08 30.97768 121.78040 6820 ft 280 kts 253°
2026-05-05 06:08 30.97199 121.75869 7491 ft 283 kts 253°
2026-05-05 06:09 30.96622 121.73699 8226 ft 283 kts 255°
2026-05-05 06:09 30.96337 121.71451 8907 ft 284 kts 271°
2026-05-05 06:09 30.96587 121.69187 9645 ft 285 kts 282°
2026-05-05 06:09 30.97014 121.66933 10328 ft 287 kts 283°
2026-05-05 06:10 30.97316 121.65392 10575 ft 295 kts 283°
2026-05-05 06:10 30.97939 121.62168 10955 ft 317 kts 283°
2026-05-05 06:10 30.98257 121.60482 11237 ft 324 kts 282°
2026-05-05 06:10 30.98896 121.57054 12123 ft 328 kts 282°
2026-05-05 06:11 30.99375 121.54458 12823 ft 329 kts 282°
2026-05-05 06:11 30.99692 121.52732 13276 ft 331 kts 282°
2026-05-05 06:11 31.00174 121.50106 13955 ft 332 kts 282°
2026-05-05 06:11 31.00659 121.47469 14581 ft 335 kts 282°
2026-05-05 06:12 31.01312 121.43932 15455 ft 338 kts 282°
2026-05-05 06:12 31.01805 121.41258 16079 ft 341 kts 282°
2026-05-05 06:12 31.02303 121.38558 16725 ft 343 kts 282°
2026-05-05 06:12 31.02636 121.36747 17168 ft 345 kts 282°
2026-05-05 06:13 31.03304 121.33100 17977 ft 348 kts 281°
2026-05-05 06:13 31.03642 121.31255 18407 ft 350 kts 281°
2026-05-05 06:13 31.04147 121.28488 19014 ft 353 kts 281°
2026-05-05 06:13 31.04828 121.24751 19793 ft 357 kts 281°
2026-05-05 06:14 31.05169 121.22875 20168 ft 359 kts 281°
2026-05-05 06:14 31.05690 121.20016 20724 ft 363 kts 281°
2026-05-05 06:14 31.06841 121.16325 21390 ft 372 kts 302°
2026-05-05 06:14 31.08598 121.14108 21920 ft 379 kts 320°
2026-05-05 06:15 31.10932 121.12654 22437 ft 388 kts 339°
2026-05-05 06:15 31.13610 121.12148 22922 ft 396 kts 354°
2026-05-05 06:15 31.16396 121.12029 23418 ft 399 kts 355°
2026-05-05 06:15 31.18239 121.11949 23716 ft 402 kts 354°
2026-05-05 06:16 31.21035 121.11815 24164 ft 405 kts 354°
2026-05-05 06:16 31.23853 121.11666 24589 ft 408 kts 353°
2026-05-05 06:16 31.27651 121.11451 25134 ft 412 kts 353°
2026-05-05 06:16 31.30517 121.11286 25532 ft 415 kts 353°
2026-05-05 06:17 31.33406 121.11126 25940 ft 418 kts 354°
2026-05-05 06:17 31.36358 121.11115 26322 ft 423 kts 357°
2026-05-05 06:17 31.39309 121.11274 26710 ft 426 kts 359°
2026-05-05 06:17 31.42275 121.11424 27081 ft 426 kts 354°
2026-05-05 06:18 31.44226 121.11253 27305 ft 424 kts 347°
2026-05-05 06:18 31.48014 121.10122 27786 ft 420 kts 334°
2026-05-05 06:18 31.50687 121.08776 28146 ft 420 kts 331°
2026-05-05 06:18 31.52467 121.07824 28385 ft 421 kts 330°
2026-05-05 06:19 31.56020 121.05901 28835 ft 424 kts 330°
2026-05-05 06:19 31.58699 121.04455 29172 ft 427 kts 330°
2026-05-05 06:19 31.61397 121.03005 29483 ft 429 kts 330°
2026-05-05 06:19 31.64111 121.01555 29799 ft 431 kts 330°
2026-05-05 06:20 31.66839 121.00097 30106 ft 433 kts 330°
2026-05-05 06:20 31.68677 120.99116 30304 ft 434 kts 330°
2026-05-05 06:20 31.72330 120.97165 30658 ft 437 kts 330°
2026-05-05 06:20 31.75115 120.95676 30955 ft 439 kts 330°
2026-05-05 06:21 31.76961 120.94691 31151 ft 439 kts 331°
2026-05-05 06:21 31.80675 120.92706 31504 ft 442 kts 330°
2026-05-05 06:21 31.82529 120.91713 31686 ft 443 kts 330°
2026-05-05 06:21 31.86279 120.89704 32030 ft 445 kts 330°
2026-05-05 06:22 31.89095 120.88192 32264 ft 447 kts 330°
2026-05-05 06:22 31.91923 120.86676 32500 ft 449 kts 330°
2026-05-05 06:22 31.94783 120.85140 32747 ft 451 kts 330°
2026-05-05 06:22 31.97636 120.83609 32973 ft 453 kts 330°
2026-05-05 06:23 32.00499 120.82071 33230 ft 454 kts 330°
2026-05-05 06:23 32.03359 120.80533 33544 ft 453 kts 330°
2026-05-05 06:23 32.06203 120.78992 33843 ft 450 kts 328°
2026-05-05 06:23 32.08868 120.77142 34092 ft 444 kts 320°
2026-05-05 06:24 32.11239 120.74876 34338 ft 438 kts 312°
2026-05-05 06:24 32.13296 120.72250 34580 ft 432 kts 304°
2026-05-05 06:24 32.14985 120.69364 34821 ft 427 kts 296°
2026-05-05 06:24 32.16307 120.66266 35055 ft 423 kts 289°
2026-05-05 06:25 32.17251 120.63011 35314 ft 421 kts 282°
2026-05-05 06:25 32.17812 120.59652 35524 ft 419 kts 275°
2026-05-05 06:25 32.18128 120.56232 35726 ft 420 kts 275°
2026-05-05 06:25 32.18413 120.52808 35909 ft 422 kts 274°
2026-05-05 06:26 32.18694 120.49353 36115 ft 423 kts 274°
2026-05-05 06:26 32.18973 120.45912 36292 ft 424 kts 274°
2026-05-05 06:26 32.19255 120.42464 36485 ft 425 kts 275°
2026-05-05 06:26 32.19442 120.40173 36606 ft 425 kts 274°
2026-05-05 06:27 32.19820 120.35553 36857 ft 426 kts 274°
2026-05-05 06:27 32.20386 120.28612 37040 ft 428 kts 274°
2026-05-05 06:28 32.20865 120.22798 37046 ft 428 kts 274°
2026-05-05 06:28 32.21533 120.14671 37052 ft 427 kts 274°
2026-05-05 06:29 32.22094 120.07710 37051 ft 428 kts 274°
2026-05-05 06:29 32.22653 120.00722 37049 ft 428 kts 274°
2026-05-05 06:30 32.23208 119.93753 37048 ft 429 kts 275°
2026-05-05 06:30 32.23731 119.86768 37045 ft 429 kts 272°
2026-05-05 06:31 32.23743 119.79764 37046 ft 429 kts 267°
2026-05-05 06:31 32.23243 119.73928 37040 ft 430 kts 262°
2026-05-05 06:32 32.22042 119.67053 37031 ft 430 kts 256°
2026-05-05 06:32 32.20003 119.59186 37030 ft 432 kts 254°
2026-05-05 06:33 32.18196 119.52441 37024 ft 432 kts 254°
2026-05-05 06:33 32.16697 119.46842 37023 ft 432 kts 255°
2026-05-05 06:34 32.14615 119.38970 37019 ft 432 kts 255°
2026-05-05 06:34 32.12825 119.32230 37019 ft 433 kts 254°
2026-05-05 06:35 32.11024 119.25463 37013 ft 433 kts 254°
2026-05-05 06:35 32.09222 119.18717 37009 ft 433 kts 254°
2026-05-05 06:36 32.07414 119.11964 36933 ft 433 kts 254°
2026-05-05 06:36 32.05594 119.05180 37052 ft 435 kts 254°
2026-05-05 06:37 32.03776 118.98422 37024 ft 434 kts 254°
2026-05-05 06:37 32.02263 118.92816 37017 ft 434 kts 254°
2026-05-05 06:38 32.00438 118.86065 37015 ft 433 kts 254°
2026-05-05 06:38 31.98034 118.78312 37010 ft 435 kts 249°
2026-05-05 06:39 31.95563 118.71829 37003 ft 436 kts 248°
2026-05-05 06:39 31.93080 118.65360 37015 ft 436 kts 248°
2026-05-05 06:40 31.90590 118.58863 37006 ft 437 kts 248°
2026-05-05 06:40 31.88099 118.52378 36997 ft 437 kts 248°
2026-05-05 06:41 31.85606 118.45909 37011 ft 436 kts 248°
2026-05-05 06:41 31.83522 118.40508 36996 ft 437 kts 249°
2026-05-05 06:42 31.80596 118.32943 37007 ft 437 kts 248°
2026-05-05 06:42 31.78078 118.26458 37005 ft 437 kts 248°
2026-05-05 06:43 31.75547 118.19987 36999 ft 438 kts 248°
2026-05-05 06:43 31.73081 118.13461 37013 ft 437 kts 251°
2026-05-05 06:44 31.71412 118.07901 37004 ft 436 kts 255°
2026-05-05 06:44 31.69888 118.01077 37018 ft 434 kts 258°
2026-05-05 06:45 31.68234 117.93063 37009 ft 435 kts 258°
2026-05-05 06:45 31.66809 117.86172 36994 ft 436 kts 258°
2026-05-05 06:46 31.65625 117.80458 36997 ft 435 kts 258°
2026-05-05 06:46 31.63956 117.72431 36992 ft 436 kts 258°
2026-05-05 06:47 31.62516 117.65525 36974 ft 437 kts 258°
2026-05-05 06:47 31.61077 117.58645 36986 ft 437 kts 259°
2026-05-05 06:48 31.59815 117.51715 36977 ft 436 kts 260°
2026-05-05 06:48 31.58585 117.44794 36980 ft 436 kts 261°
2026-05-05 06:49 31.57343 117.37836 36968 ft 437 kts 261°
2026-05-05 06:49 31.56099 117.30891 36978 ft 437 kts 260°
2026-05-05 06:50 31.54866 117.23955 36969 ft 437 kts 260°
2026-05-05 06:50 31.53639 117.16990 36973 ft 437 kts 260°
2026-05-05 06:51 31.52410 117.10055 36967 ft 437 kts 260°
2026-05-05 06:51 31.51177 117.03130 36986 ft 437 kts 260°
2026-05-05 06:52 31.49931 116.96192 36973 ft 438 kts 259°
2026-05-05 06:52 31.48215 116.89331 36969 ft 441 kts 253°
2026-05-05 06:53 31.45755 116.82767 36974 ft 444 kts 246°
2026-05-05 06:53 31.42567 116.76576 36974 ft 448 kts 239°
2026-05-05 06:54 31.38818 116.70725 36973 ft 449 kts 237°
2026-05-05 06:54 31.35035 116.64943 36997 ft 449 kts 237°
2026-05-05 06:55 31.31245 116.59162 37000 ft 450 kts 237°
2026-05-05 06:55 31.27454 116.53384 37016 ft 449 kts 237°
2026-05-05 06:56 31.23649 116.47594 37042 ft 449 kts 237°
2026-05-05 06:56 31.19858 116.41831 37069 ft 449 kts 237°
2026-05-05 06:57 31.16060 116.36071 37065 ft 449 kts 237°
2026-05-05 06:57 31.12245 116.30289 37073 ft 450 kts 236°
2026-05-05 06:58 31.08440 116.24530 37081 ft 450 kts 236°
2026-05-05 06:58 31.04635 116.18780 37086 ft 449 kts 236°
2026-05-05 06:59 31.00827 116.13037 37090 ft 450 kts 236°
2026-05-05 06:59 30.97642 116.08240 37098 ft 449 kts 236°
2026-05-05 07:00 30.93183 116.01533 37090 ft 450 kts 236°
2026-05-05 07:00 30.89362 115.95794 37086 ft 451 kts 236°
2026-05-05 07:01 30.85527 115.90042 37070 ft 449 kts 236°
2026-05-05 07:01 30.81723 115.84292 37049 ft 450 kts 237°
2026-05-05 07:02 30.77935 115.78540 37028 ft 450 kts 237°
2026-05-05 07:02 30.74139 115.72783 37016 ft 450 kts 237°
2026-05-05 07:03 30.70326 115.67016 37011 ft 451 kts 237°
2026-05-05 07:03 30.66513 115.61254 37002 ft 451 kts 237°
2026-05-05 07:04 30.62705 115.55512 36960 ft 450 kts 237°
2026-05-05 07:04 30.58878 115.49748 36989 ft 451 kts 237°
2026-05-05 07:05 30.55063 115.44007 36991 ft 451 kts 237°
2026-05-05 07:05 30.51243 115.38272 36990 ft 451 kts 237°
2026-05-05 07:06 30.47771 115.32304 36987 ft 446 kts 247°
2026-05-05 07:06 30.45559 115.25690 36987 ft 438 kts 259°
2026-05-05 07:07 30.44681 115.18788 36989 ft 434 kts 270°
2026-05-05 07:07 30.45049 115.11872 36998 ft 432 kts 278°
2026-05-05 07:08 30.45761 115.04972 36994 ft 432 kts 278°
2026-05-05 07:08 30.46474 114.98095 36987 ft 433 kts 278°
2026-05-05 07:09 30.47184 114.91210 36981 ft 433 kts 278°
2026-05-05 07:09 30.47889 114.84307 36980 ft 434 kts 278°
2026-05-05 07:10 30.48593 114.77384 36973 ft 432 kts 279°
2026-05-05 07:10 30.49288 114.70493 36960 ft 433 kts 279°
2026-05-05 07:11 30.49981 114.63603 36955 ft 433 kts 279°
2026-05-05 07:11 30.50670 114.56694 36946 ft 432 kts 279°
2026-05-05 07:12 30.51355 114.49816 36959 ft 432 kts 279°
2026-05-05 07:12 30.51921 114.44087 36922 ft 432 kts 279°
2026-05-05 07:13 30.52710 114.36044 36978 ft 432 kts 279°
2026-05-05 07:13 30.53385 114.29122 36960 ft 432 kts 279°
2026-05-05 07:14 30.54053 114.22220 36946 ft 433 kts 279°
2026-05-05 07:14 30.54710 114.15314 36943 ft 432 kts 279°
2026-05-05 07:15 30.55373 114.08365 36939 ft 432 kts 279°
2026-05-05 07:15 30.56043 114.01478 36939 ft 432 kts 279°
2026-05-05 07:16 30.56667 113.94587 36928 ft 433 kts 277°
2026-05-05 07:16 30.56491 113.87607 36927 ft 439 kts 267°
2026-05-05 07:17 30.55437 113.81821 36929 ft 444 kts 258°
2026-05-05 07:17 30.52582 113.74102 36922 ft 455 kts 245°
2026-05-05 07:18 30.49217 113.67900 36920 ft 457 kts 243°
2026-05-05 07:18 30.45776 113.61730 36916 ft 456 kts 243°
2026-05-05 07:19 30.42340 113.55569 36917 ft 456 kts 243°
2026-05-05 07:19 30.38899 113.49395 36916 ft 456 kts 243°
2026-05-05 07:20 30.35475 113.43261 36911 ft 456 kts 243°
2026-05-05 07:20 30.32036 113.37102 36913 ft 455 kts 243°
2026-05-05 07:21 30.28606 113.30976 36917 ft 455 kts 243°
2026-05-05 07:21 30.25179 113.24865 36916 ft 454 kts 243°
2026-05-05 07:22 30.21740 113.18738 36911 ft 454 kts 243°
2026-05-05 07:22 30.18351 113.12604 36915 ft 453 kts 244°
2026-05-05 07:23 30.14991 113.06485 36916 ft 453 kts 244°
2026-05-05 07:23 30.11609 113.00342 36915 ft 452 kts 244°
2026-05-05 07:24 30.08219 112.94208 36914 ft 452 kts 244°
2026-05-05 07:24 30.04849 112.88114 36913 ft 453 kts 244°
2026-05-05 07:25 30.01469 112.82011 36910 ft 453 kts 244°
2026-05-05 07:25 29.98072 112.75891 36913 ft 453 kts 244°
2026-05-05 07:26 29.94677 112.69781 36914 ft 452 kts 244°
2026-05-05 07:26 29.91297 112.63706 36913 ft 452 kts 244°
2026-05-05 07:27 29.87907 112.57628 36915 ft 452 kts 244°
2026-05-05 07:27 29.84503 112.51530 36912 ft 453 kts 244°
2026-05-05 07:28 29.81111 112.45458 36908 ft 452 kts 244°
2026-05-05 07:28 29.77712 112.39392 36901 ft 453 kts 245°
2026-05-05 07:29 29.74315 112.33335 36909 ft 451 kts 244°
2026-05-05 07:29 29.70900 112.27279 36899 ft 451 kts 244°
2026-05-05 07:30 29.67498 112.21266 36899 ft 451 kts 244°
2026-05-05 07:30 29.62391 112.12254 36893 ft 450 kts 244°
2026-05-05 07:31 29.58970 112.06225 36897 ft 451 kts 244°
2026-05-05 07:31 29.55560 112.00229 36890 ft 450 kts 244°
2026-05-05 07:32 29.52141 111.94224 36895 ft 451 kts 245°
2026-05-05 07:32 29.48705 111.88199 36905 ft 451 kts 245°
2026-05-05 07:33 29.45283 111.82206 36904 ft 450 kts 244°
2026-05-05 07:33 29.41854 111.76212 36914 ft 452 kts 245°
2026-05-05 07:34 29.38423 111.70212 36909 ft 450 kts 245°
2026-05-05 07:34 29.35326 111.64019 36919 ft 445 kts 251°
2026-05-05 07:35 29.32838 111.57632 36922 ft 439 kts 256°
2026-05-05 07:35 29.30584 111.51147 36931 ft 440 kts 256°
2026-05-05 07:36 29.28324 111.44643 36919 ft 439 kts 256°
2026-05-05 07:36 29.26074 111.38192 36920 ft 438 kts 256°
2026-05-05 07:37 29.23812 111.31709 36930 ft 439 kts 256°
2026-05-05 07:37 29.21554 111.25257 36909 ft 439 kts 256°
2026-05-05 07:38 29.19282 111.18768 36922 ft 438 kts 256°
2026-05-05 07:38 29.17018 111.12319 36940 ft 438 kts 256°
2026-05-05 07:39 29.14752 111.05879 36972 ft 438 kts 256°
2026-05-05 07:39 29.12481 110.99435 36959 ft 438 kts 256°
2026-05-05 07:40 29.10214 110.93012 36960 ft 437 kts 256°
2026-05-05 07:40 29.07949 110.86605 36949 ft 438 kts 256°
2026-05-05 07:41 29.05675 110.80179 36954 ft 438 kts 256°
2026-05-05 07:41 29.03381 110.73723 36954 ft 439 kts 256°
2026-05-05 07:42 29.01120 110.67290 36969 ft 438 kts 256°
2026-05-05 07:42 28.98875 110.60867 36976 ft 438 kts 256°
2026-05-05 07:43 28.96612 110.54399 36977 ft 439 kts 256°
2026-05-05 07:43 28.94353 110.47974 36999 ft 438 kts 256°
2026-05-05 07:44 28.92094 110.41558 36987 ft 437 kts 256°
2026-05-05 07:44 28.89837 110.35152 37002 ft 437 kts 256°
2026-05-05 07:45 28.87560 110.28708 37005 ft 437 kts 256°
2026-05-05 07:45 28.85296 110.22309 37004 ft 437 kts 256°
2026-05-05 07:46 28.82996 110.15825 37007 ft 437 kts 256°
2026-05-05 07:46 28.80710 110.09387 37015 ft 437 kts 256°
2026-05-05 07:47 28.78495 110.03159 37027 ft 437 kts 256°
2026-05-05 07:47 28.76202 109.96726 37022 ft 438 kts 256°
2026-05-05 07:48 28.73882 109.90233 37017 ft 436 kts 256°
2026-05-05 07:48 28.71597 109.83841 36995 ft 438 kts 256°
2026-05-05 07:49 28.69301 109.77435 36973 ft 438 kts 256°
2026-05-05 07:49 28.66987 109.70997 36972 ft 438 kts 256°
2026-05-05 07:50 28.64699 109.64597 36970 ft 436 kts 256°
2026-05-05 07:50 28.62510 109.58174 36987 ft 436 kts 256°
2026-05-05 07:51 28.60319 109.51751 36983 ft 436 kts 257°
2026-05-05 07:51 28.58062 109.45327 36987 ft 439 kts 254°
2026-05-05 07:52 28.55393 109.39048 36977 ft 442 kts 251°
2026-05-05 07:52 28.52723 109.32964 36983 ft 442 kts 251°
2026-05-05 07:53 28.49970 109.26705 36958 ft 441 kts 251°
2026-05-05 07:53 28.47218 109.20460 36965 ft 442 kts 251°
2026-05-05 07:54 28.44470 109.14232 36974 ft 440 kts 251°
2026-05-05 07:54 28.41708 109.07996 36976 ft 440 kts 251°
2026-05-05 07:55 28.38927 109.01725 36983 ft 440 kts 251°
2026-05-05 07:55 28.36157 108.95494 36997 ft 440 kts 251°
2026-05-05 07:56 28.33406 108.89311 37005 ft 440 kts 251°
2026-05-05 07:56 28.30619 108.83064 37020 ft 439 kts 251°
2026-05-05 07:57 28.27863 108.76892 37037 ft 439 kts 251°
2026-05-05 07:57 28.25093 108.70697 37033 ft 438 kts 251°
2026-05-05 07:58 28.22311 108.64486 37031 ft 438 kts 251°
2026-05-05 07:58 28.19520 108.58264 37015 ft 438 kts 251°
2026-05-05 07:59 28.16752 108.52105 37009 ft 438 kts 251°
2026-05-05 07:59 28.13988 108.45962 37002 ft 437 kts 251°
2026-05-05 08:00 28.11204 108.39787 36996 ft 437 kts 251°
2026-05-05 08:00 28.08419 108.33615 37001 ft 437 kts 250°
2026-05-05 08:01 28.05624 108.27432 36995 ft 437 kts 250°
2026-05-05 08:01 28.02831 108.21263 36998 ft 438 kts 251°
2026-05-05 08:02 28.00025 108.15072 37003 ft 438 kts 250°
2026-05-05 08:02 27.97230 108.08915 37008 ft 438 kts 250°
2026-05-05 08:03 27.94444 108.02795 37019 ft 437 kts 251°
2026-05-05 08:03 27.91638 107.96629 37021 ft 437 kts 251°
2026-05-05 08:04 27.88839 107.90490 37029 ft 438 kts 250°
2026-05-05 08:04 27.86025 107.84334 37040 ft 437 kts 250°
2026-05-05 08:05 27.83216 107.78201 37049 ft 438 kts 250°
2026-05-05 08:05 27.80426 107.71991 37069 ft 437 kts 251°
2026-05-05 08:06 27.77683 107.65816 37068 ft 436 kts 251°
2026-05-05 08:06 27.74914 107.59612 37064 ft 436 kts 251°
2026-05-05 08:07 27.72169 107.53474 37051 ft 437 kts 251°
2026-05-05 08:07 27.69419 107.47332 37046 ft 436 kts 251°
2026-05-05 08:08 27.66672 107.41217 37042 ft 437 kts 251°
2026-05-05 08:08 27.63889 107.35026 37047 ft 436 kts 251°
2026-05-05 08:09 27.61128 107.28892 37047 ft 436 kts 250°
2026-05-05 08:09 27.58349 107.22731 37052 ft 437 kts 251°
2026-05-05 08:10 27.55593 107.16619 37057 ft 436 kts 251°
2026-05-05 08:10 27.52842 107.10524 37066 ft 435 kts 251°
2026-05-05 08:11 27.50077 107.04409 37070 ft 435 kts 251°
2026-05-05 08:11 27.47329 106.98339 37068 ft 434 kts 251°
2026-05-05 08:12 27.44618 106.92277 37065 ft 434 kts 251°
2026-05-05 08:12 27.41905 106.86191 37066 ft 434 kts 251°
2026-05-05 08:13 27.39162 106.80065 37056 ft 436 kts 251°
2026-05-05 08:13 27.36427 106.73968 37048 ft 435 kts 251°
2026-05-05 08:14 27.33667 106.67849 37043 ft 436 kts 251°
2026-05-05 08:14 27.30921 106.61772 37041 ft 436 kts 250°
2026-05-05 08:15 27.28153 106.55656 37047 ft 435 kts 251°
2026-05-05 08:15 27.25387 106.49555 37049 ft 435 kts 251°
2026-05-05 08:16 27.22616 106.43451 37062 ft 436 kts 250°
2026-05-05 08:16 27.19843 106.37356 37072 ft 435 kts 251°
2026-05-05 08:17 27.17064 106.31246 37081 ft 436 kts 250°
2026-05-05 08:17 27.14313 106.25205 37085 ft 436 kts 250°
2026-05-05 08:18 27.11554 106.19152 37087 ft 435 kts 250°
2026-05-05 08:18 27.08792 106.13105 37089 ft 435 kts 250°
2026-05-05 08:19 27.06136 106.06953 37093 ft 431 kts 254°
2026-05-05 08:19 27.04050 106.00680 37091 ft 425 kts 259°
2026-05-05 08:20 27.02534 105.94276 37093 ft 420 kts 264°
2026-05-05 08:20 27.01304 105.87842 37098 ft 420 kts 264°
2026-05-05 08:21 27.00071 105.81387 37112 ft 420 kts 264°
2026-05-05 08:21 26.98846 105.74959 37127 ft 421 kts 264°
2026-05-05 08:22 26.97609 105.68499 37144 ft 422 kts 264°
2026-05-05 08:22 26.96372 105.62059 37151 ft 422 kts 264°
2026-05-05 08:23 26.95136 105.55634 37155 ft 423 kts 264°
2026-05-05 08:23 26.93898 105.49212 37164 ft 423 kts 263°
2026-05-05 08:24 26.92644 105.42732 37166 ft 423 kts 263°
2026-05-05 08:24 26.91403 105.36322 37172 ft 422 kts 263°
2026-05-05 08:25 26.90152 105.29891 37182 ft 423 kts 263°
2026-05-05 08:25 26.88885 105.23398 37182 ft 423 kts 263°
2026-05-05 08:26 26.87630 105.16968 37191 ft 422 kts 263°
2026-05-05 08:26 26.86374 105.10557 37194 ft 423 kts 263°
2026-05-05 08:27 26.85102 105.04071 37200 ft 422 kts 263°
2026-05-05 08:27 26.83830 104.97619 37205 ft 423 kts 263°
2026-05-05 08:28 26.82551 104.91141 37216 ft 423 kts 263°
2026-05-05 08:28 26.81272 104.84695 37228 ft 423 kts 263°
2026-05-05 08:29 26.79982 104.78239 37237 ft 423 kts 263°
2026-05-05 08:30 26.77801 104.68618 37246 ft 429 kts 256°
2026-05-05 08:30 26.75172 104.62548 37253 ft 438 kts 245°
2026-05-05 08:31 26.71420 104.57057 37263 ft 448 kts 234°
2026-05-05 08:31 26.66702 104.52344 37262 ft 453 kts 227°
2026-05-05 08:32 26.61777 104.47868 37258 ft 454 kts 227°
2026-05-05 08:32 26.56837 104.43396 37251 ft 453 kts 226°
2026-05-05 08:33 26.51918 104.38935 37246 ft 454 kts 226°
2026-05-05 08:33 26.46964 104.34454 37245 ft 453 kts 226°
2026-05-05 08:34 26.42039 104.30001 37249 ft 453 kts 226°
2026-05-05 08:34 26.37124 104.25559 37259 ft 454 kts 226°
2026-05-05 08:35 26.32168 104.21089 37268 ft 453 kts 226°
2026-05-05 08:35 26.27270 104.16671 37290 ft 453 kts 226°
2026-05-05 08:36 26.22322 104.12216 37309 ft 453 kts 226°
2026-05-05 08:36 26.17389 104.07775 37315 ft 453 kts 226°
2026-05-05 08:37 26.12430 104.03321 37320 ft 454 kts 226°
2026-05-05 08:37 26.07489 103.98887 37317 ft 454 kts 225°
2026-05-05 08:38 26.02534 103.94448 37312 ft 454 kts 225°
2026-05-05 08:38 26.00072 103.92240 37050 ft 453 kts 227°
2026-05-05 08:38 25.97756 103.89842 35929 ft 454 kts 233°
2026-05-05 08:38 25.95747 103.87137 34534 ft 456 kts 240°
2026-05-05 08:39 25.93951 103.84269 32997 ft 459 kts 241°
2026-05-05 08:39 25.92166 103.81348 31537 ft 459 kts 241°
2026-05-05 08:39 25.90391 103.78459 30941 ft 441 kts 240°
2026-05-05 08:39 25.88665 103.75668 30406 ft 423 kts 241°
2026-05-05 08:40 25.87074 103.73004 29907 ft 403 kts 247°
2026-05-05 08:40 25.86245 103.70133 29350 ft 377 kts 270°
2026-05-05 08:40 25.86460 103.67268 28630 ft 364 kts 286°
2026-05-05 08:40 25.87403 103.64695 27817 ft 360 kts 301°
2026-05-05 08:41 25.88981 103.62523 26951 ft 361 kts 316°
2026-05-05 08:41 25.91070 103.60950 26116 ft 365 kts 332°
2026-05-05 08:41 25.93522 103.60120 25317 ft 370 kts 348°
2026-05-05 08:41 25.96112 103.60151 24550 ft 377 kts
2026-05-05 08:42 25.98632 103.61098 23807 ft 382 kts 25°
2026-05-05 08:42 26.00760 103.62888 23103 ft 386 kts 45°
2026-05-05 08:42 26.02373 103.65266 22430 ft 385 kts 53°
2026-05-05 08:42 26.03846 103.67740 21737 ft 381 kts 54°
2026-05-05 08:43 26.05292 103.70180 21126 ft 375 kts 54°
2026-05-05 08:43 26.06730 103.72576 21002 ft 372 kts 53°
2026-05-05 08:43 26.08169 103.75007 21024 ft 376 kts 59°
2026-05-05 08:43 26.09093 103.77749 21037 ft 379 kts 80°
2026-05-05 08:44 26.09164 103.80661 21075 ft 379 kts 99°
2026-05-05 08:44 26.08424 103.83389 21156 ft 363 kts 118°
2026-05-05 08:44 26.07056 103.85645 21174 ft 345 kts 137°
2026-05-05 08:44 26.05263 103.87285 21191 ft 326 kts 154°
2026-05-05 08:45 26.03201 103.88286 21218 ft 319 kts 171°
2026-05-05 08:45 26.01006 103.88635 21235 ft 313 kts 186°
2026-05-05 08:45 25.98856 103.88326 21231 ft 307 kts 201°
2026-05-05 08:45 25.96896 103.87458 21216 ft 301 kts 215°
2026-05-05 08:46 25.95222 103.86103 21210 ft 295 kts 228°
2026-05-05 08:46 25.93910 103.84364 21217 ft 291 kts 238°
2026-05-05 08:46 25.92776 103.82503 21209 ft 291 kts 239°
2026-05-05 08:46 25.91654 103.80634 21216 ft 290 kts 239°
2026-05-05 08:47 25.90524 103.78760 21224 ft 291 kts 239°
2026-05-05 08:47 25.89383 103.76884 21220 ft 290 kts 239°
2026-05-05 08:47 25.88239 103.75007 21220 ft 290 kts 239°
2026-05-05 08:47 25.87169 103.73102 21216 ft 288 kts 248°
2026-05-05 08:48 25.86543 103.70991 21232 ft 286 kts 261°
2026-05-05 08:48 25.86400 103.68799 21231 ft 285 kts 274°
2026-05-05 08:48 25.86736 103.66610 21229 ft 285 kts 287°
2026-05-05 08:48 25.87519 103.64596 21242 ft 286 kts 299°
2026-05-05 08:49 25.88721 103.62826 21255 ft 289 kts 311°
2026-05-05 08:49 25.90313 103.61391 21261 ft 294 kts 324°
2026-05-05 08:49 25.92181 103.60426 21282 ft 300 kts 338°
2026-05-05 08:49 25.94263 103.59993 21295 ft 308 kts 353°
2026-05-05 08:50 25.96462 103.60176 21298 ft 315 kts
2026-05-05 08:50 25.98569 103.61013 21300 ft 323 kts 24°
2026-05-05 08:50 26.00419 103.62464 21289 ft 330 kts 40°
2026-05-05 08:50 26.01898 103.64442 21277 ft 333 kts 52°
2026-05-05 08:51 26.03187 103.66603 21256 ft 334 kts 57°
2026-05-05 08:51 26.04064 103.69010 21254 ft 338 kts 77°
2026-05-05 08:51 26.04247 103.71610 21251 ft 339 kts 95°
2026-05-05 08:51 26.03762 103.74184 21244 ft 338 kts 112°
2026-05-05 08:52 26.02670 103.76479 21244 ft 335 kts 130°
2026-05-05 08:52 26.01080 103.78329 21254 ft 330 kts 146°
2026-05-05 08:52 25.99131 103.79614 21247 ft 324 kts 162°
2026-05-05 08:52 25.96970 103.80268 21238 ft 317 kts 179°
2026-05-05 08:53 25.94798 103.80261 21234 ft 309 kts 195°
2026-05-05 08:53 25.92736 103.79640 21242 ft 303 kts 208°
2026-05-05 08:53 25.90903 103.78491 21255 ft 296 kts 223°
2026-05-05 08:53 25.89428 103.76922 21262 ft 291 kts 236°
2026-05-05 08:54 25.88267 103.75103 21270 ft 289 kts 239°
2026-05-05 08:54 25.87107 103.73238 21172 ft 307 kts 236°
2026-05-05 08:54 25.85680 103.71376 20803 ft 322 kts 230°
2026-05-05 08:54 25.84033 103.69679 20480 ft 324 kts 223°
2026-05-05 08:55 25.82221 103.68193 20170 ft 325 kts 217°
2026-05-05 08:55 25.80249 103.66928 19858 ft 326 kts 211°
2026-05-05 08:55 25.78165 103.65864 19548 ft 338 kts 209°
2026-05-05 08:55 25.76047 103.64682 19204 ft 340 kts 214°
2026-05-05 08:56 25.74061 103.63285 18881 ft 337 kts 218°
2026-05-05 08:56 25.72142 103.61800 18554 ft 335 kts 219°
2026-05-05 08:56 25.70293 103.60348 18231 ft 335 kts 219°
2026-05-05 08:56 25.68397 103.58853 17918 ft 333 kts 219°
2026-05-05 08:57 25.66506 103.57359 17601 ft 332 kts 219°
2026-05-05 08:57 25.64625 103.55874 17282 ft 331 kts 219°
2026-05-05 08:57 25.62751 103.54395 16968 ft 329 kts 219°
2026-05-05 08:57 25.60888 103.52923 16647 ft 328 kts 219°
2026-05-05 08:58 25.59025 103.51451 16314 ft 328 kts 220°
2026-05-05 08:58 25.57175 103.49990 15986 ft 327 kts 219°
2026-05-05 08:58 25.55322 103.48529 15646 ft 327 kts 219°
2026-05-05 08:58 25.53455 103.47057 15311 ft 326 kts 219°
2026-05-05 08:59 25.51603 103.45596 14975 ft 325 kts 219°
2026-05-05 08:59 25.49758 103.44142 14643 ft 324 kts 219°
2026-05-05 08:59 25.47924 103.42697 14310 ft 324 kts 219°
2026-05-05 08:59 25.46080 103.41246 13977 ft 323 kts 219°
2026-05-05 09:00 25.44259 103.39813 13721 ft 319 kts 219°
2026-05-05 09:00 25.42480 103.38417 13680 ft 307 kts 219°
2026-05-05 09:00 25.40759 103.37068 13638 ft 296 kts 220°
2026-05-05 09:00 25.39108 103.35773 13601 ft 285 kts 220°
2026-05-05 09:01 25.37536 103.34541 13576 ft 266 kts 220°
2026-05-05 09:01 25.36090 103.33411 13552 ft 245 kts 220°
2026-05-05 09:01 25.34728 103.32341 13539 ft 234 kts 220°
2026-05-05 09:01 25.33520 103.31189 13486 ft 224 kts 239°
2026-05-05 09:02 25.32932 103.29661 13440 ft 215 kts 264°
2026-05-05 09:02 25.33009 103.28012 13264 ft 217 kts 286°
2026-05-05 09:02 25.33721 103.26544 12979 ft 220 kts 303°
2026-05-05 09:02 25.34665 103.25215 12734 ft 218 kts 304°
2026-05-05 09:03 25.35606 103.23897 12497 ft 216 kts 303°
2026-05-05 09:03 25.36533 103.22600 12273 ft 214 kts 303°
2026-05-05 09:03 25.37446 103.21314 12055 ft 213 kts 304°
2026-05-05 09:03 25.38338 103.20014 11825 ft 210 kts 293°
2026-05-05 09:04 25.38631 103.18466 11583 ft 211 kts 261°
2026-05-05 09:04 25.38111 103.16943 11363 ft 216 kts 243°
2026-05-05 09:04 25.37255 103.15566 11085 ft 217 kts 232°
2026-05-05 09:04 25.36206 103.14421 10933 ft 203 kts 225°
2026-05-05 09:05 25.35184 103.13465 10907 ft 183 kts 223°
2026-05-05 09:05 25.34240 103.12621 10883 ft 170 kts 223°
2026-05-05 09:05 25.33313 103.11799 10892 ft 170 kts 223°
2026-05-05 09:05 25.32437 103.11029 10914 ft 170 kts 223°
2026-05-05 09:06 25.31762 103.10437 10933 ft 170 kts 223°
2026-05-05 09:06 25.31088 103.09849 10949 ft 170 kts 223°
2026-05-05 09:06 25.30412 103.09260 10958 ft 170 kts 223°
2026-05-05 09:06 25.29733 103.08670 10853 ft 170 kts 223°
2026-05-05 09:07 25.29059 103.08085 10698 ft 170 kts 222°
2026-05-05 09:07 25.28383 103.07499 10543 ft 170 kts 223°
2026-05-05 09:07 25.27705 103.06910 10389 ft 168 kts 221°
2026-05-05 09:07 25.26832 103.06152 10190 ft 168 kts 222°
2026-05-05 09:08 25.25915 103.05355 9980 ft 168 kts 221°
2026-05-05 09:08 25.25000 103.04561 9769 ft 167 kts 223°
2026-05-05 09:08 25.24084 103.03765 9562 ft 167 kts 222°
2026-05-05 09:08 25.23176 103.02975 9354 ft 166 kts 222°
2026-05-05 09:09 25.22271 103.02187 9153 ft 166 kts 221°
2026-05-05 09:09 25.21357 103.01393 8947 ft 165 kts 221°
2026-05-05 09:09 25.20452 103.00607 8733 ft 165 kts 223°
2026-05-05 09:09 25.19554 102.99825 8536 ft 164 kts 222°
2026-05-05 09:10 25.18657 102.99044 8332 ft 164 kts 224°
2026-05-05 09:10 25.17762 102.98265 8131 ft 162 kts 223°
2026-05-05 09:10 25.16872 102.97490 7940 ft 163 kts 222°
2026-05-05 09:10 25.15980 102.96711 7740 ft 162 kts 220°
2026-05-05 09:11 25.15085 102.95934 7531 ft 163 kts 221°
2026-05-05 09:11 25.14201 102.95161 7333 ft 161 kts 219°
2026-05-05 09:11 25.13322 102.94399 7128 ft 161 kts 222°
2026-05-05 09:11 25.12453 102.93646 6955 ft 153 kts 221°
2026-05-05 09:12 25.11731 102.93002 6951 ft 107 kts 213°
2026-05-05 09:12 25.11271 102.92654 6951 ft 54 kts 199°
2026-05-05 09:12 25.11084 102.92607 6951 ft 1 kts 191°
2026-05-05 09:12 25.11083 102.92607 6951 ft 0 kts 191°
2026-05-05 09:14 25.11068 102.92604 6950 ft 8 kts 191°
2026-05-05 09:14 25.10964 102.92567 6950 ft 22 kts 205°
2026-05-05 09:14 25.10880 102.92513 6950 ft 0 kts 214°
2026-05-05 09:15 25.10872 102.92507 6950 ft 4 kts 214°
2026-05-05 09:15 25.10836 102.92480 6950 ft 7 kts 214°
2026-05-05 09:15 25.10776 102.92468 6950 ft 10 kts 176°
2026-05-05 09:16 25.10692 102.92455 6950 ft 13 kts 203°
2026-05-05 09:16 25.10648 102.92428 6950 ft 0 kts 212°
2026-05-05 09:17 25.10643 102.92424 6951 ft 4 kts 212°
2026-05-05 09:17 25.10602 102.92403 6951 ft 8 kts 191°
2026-05-05 09:17 25.10541 102.92423 6951 ft 13 kts 150°
2026-05-05 09:18 25.10465 102.92421 6951 ft 11 kts 203°
2026-05-05 09:18 25.10400 102.92375 6951 ft 11 kts 219°
2026-05-05 09:18 25.10372 102.92350 6951 ft 0 kts 218°
2026-05-05 09:19 25.15821 102.96572 7705 ft 162 kts 220°
2026-05-05 09:19 25.12569 102.93746 6955 ft 156 kts 221°
2026-05-05 09:19 25.12173 102.93395 6950 ft 142 kts 219°